sat.trackr.live / text

‹ back to catalog

STARLINK-37666

NORAD 69046 · 2026-101X

PAYLOAD ACTIVE UNKNOWN

§ Identity

Operator
Country
US
Launch date
2026-05-06
Launch site
AFWTR
Launch vehicle
Mass (kg)
RCS (m²)

Purposes: comms

External: N2YO · Heavens-Above · Gunter

§ Orbital elements

Epoch: 2026-09-20T01:04:50.661120Z

Period
93.91 min
Inclination
97.2847°
Eccentricity
0.0001634
Mean motion
15.33419631 rev/d
Perigee alt
464.5 km
Apogee alt
466.7 km
Semi-major
6,843.8 km
B*
4.8671e-4
RAAN
116.6076°
Arg perigee
90.3262°
Mean anomaly
269.8168°
Rev number
2,111

§ Raw data

STARLINK-376661 69046U 26101X   26263.04503080  .00015658  00000+0  48671-3 0  99972 69046  97.2847 116.6076 0001634  90.3262 269.8168 15.33419631 21118

JSON: /api/v1/satellites/69046 · /tle

For live sub-satellite position, see the globe view (requires WebGL).

§ Visibility from observer

Set your observer location to see the next 7 days of passes ≥ 10°. The values pass through the URL so the page stays shareable.

No JS? Fill the form by hand. The geolocation button needs JavaScript.